NWS Regional Weather Roundup

000
ASUS41 KBGM 212010
RWRBGM

REGIONAL WEATHER ROUNDUP
NATIONAL WEATHER SERVICE BINGHAMTON NY
400 PM EDT MON OCT 21 2019

Note: "fair" indicates few or no clouds below 12,000 feet with no
significant weather and/or obstructions to visibility.

* = Station(s) that does not report precipitation, such as rain,
snow, etc, also no thunder or fog.

NYZ009-015>018-022>025-036-037-044>046-055>057-062-212100
...Central New York...

CITY           SKY/WX    TMP DP  RH WIND       PRES   REMARKS
Binghamton     FAIR      60  47  61 S5        30.07
Cortland       FAIR      63  45  51 S6        30.06R
Dansville      FAIR      68  43  40 E14       29.96F
Elmira         FAIR      66  49  54 E8        30.02
Endicott       CLEAR     63  50  63 E3        30.05S
Ithaca         SUNNY     66  48  52 S9        30.06R
Hamilton       SUNNY     66  43  42 SE7       30.06R
Monticello     FAIR      62  44  51 SE8       30.08
Norwich        SUNNY     64  39  39 CALM      30.07R
Oneonta        SUNNY     63  43  48 E3        30.06F
Penn Yan       FAIR      66  44  45 E7        30.03R
Rome           FAIR      63  47  55 SE10      30.09R
Seneca Falls   CLEAR     64  46  52 S7        30.03F
Sidney         SUNNY     66  50  55 W3        30.05S
Skaneateles    FAIR      68  45  42 VRB6      30.04S
Syracuse       FAIR      66  52  60 E9        30.04F
$$

PAZ038>040-043-044-047-048-072-212100
...Northeast Pennsylvania...

CITY           SKY/WX    TMP DP  RH WIND       PRES   REMARKS
Hazleton       FAIR      68  45  42 SE6       30.08R
Scranton       FAIR      67  50  54 CALM      30.05
Towanda        CLEAR     64  48  55 CALM      30.04F
$$
&&
KEY
WCI = Wind Chill Index
VSB = Visibility
HX  = Heat Index
$$

NWS BGM Office Regional Weather Roundup